"read_dt","SO2 (ppb)","flags","PMT voltage (V)","lamp voltage (V)","lamp intensity (Hz)","internal temp (C)","react chamber temp (C)","sample flow (l/min)","pres (mmHg)","SO2 bkg (ppb)","SO2 coefficient"
2013-10-03 00:00:00,2635E-5,5C000000,-0724,0944,11077,021.7,045.1,0.404,736.3,01.18,0.508
2013-10-03 00:01:00,7886E-5,5C000000,-0724,0943,10993,021.7,045.1,0.404,736.3,01.18,0.508
2013-10-03 00:02:00,1331E-4,5C000000,-0724,0945,11036,021.7,045.2,0.404,736.4,01.18,0.508
2013-10-03 00:03:00,4866E-5,5C000000,-0724,0945,11066,021.7,045.1,0.405,736.4,01.18,0.508
2013-10-03 00:04:00,9582E-5,5C000000,-0724,0945,10972,021.7,045.1,0.404,736.4,01.18,0.508
2013-10-03 00:05:00,1339E-4,5C000000,-0724,0945,11072,021.7,045.2,0.404,736.5,01.18,0.508
2013-10-03 00:06:00,-6135E-6,5C000000,-0724,0946,11162,021.7,045.2,0.404,736.5,01.18,0.508
2013-10-03 00:07:00,1212E-4,5C000000,-0724,0945,11246,021.7,045.2,0.404,736.4,01.18,0.508
2013-10-03 00:08:00,7812E-5,5C000000,-0724,0945,11011,021.7,045.2,0.404,736.4,01.18,0.508
2013-10-03 00:09:00,9044E-5,5C000000,-0724,0944,11003,021.7,045.1,0.404,736.0,01.18,0.508
2013-10-03 00:10:00,3704E-5,5C000000,-0724,0944,11094,021.7,045.1,0.404,735.7,01.18,0.508
2013-10-03 00:11:00,5434E-5,5C000000,-0724,0945,11237,021.7,045.1,0.404,735.6,01.18,0.508
2013-10-03 00:12:00,1266E-4,5C000000,-0724,0944,11147,021.7,045.2,0.404,736.1,01.18,0.508
2013-10-03 00:13:00,9257E-5,5C000000,-0724,0946,10892,021.7,045.2,0.404,735.9,01.18,0.508
2013-10-03 00:14:00,1136E-4,5C000000,-0724,0946,10906,021.7,045.2,0.404,735.5,01.18,0.508
2013-10-03 00:15:00,1019E-4,5C000000,-0724,0946,11043,021.7,045.2,0.404,735.0,01.18,0.508
2013-10-03 00:16:00,7682E-5,5C000000,-0724,0946,10986,021.7,045.1,0.403,734.9,01.18,0.508
2013-10-03 00:17:00,1476E-4,5C000000,-0724,0944,11052,021.7,045.2,0.403,734.5,01.18,0.508
2013-10-03 00:18:00,7400E-7,5C000000,-0724,0946,11190,021.7,045.1,0.403,734.3,01.18,0.508
2013-10-03 00:19:00,1012E-4,5C000000,-0724,0946,11080,021.7,045.2,0.402,734.1,01.19,0.508
2013-10-03 00:20:00,6873E-5,5C000000,-0724,0946,11017,021.7,045.2,0.403,733.9,01.19,0.508
2013-10-03 00:21:00,1398E-4,5C000000,-0724,0944,11175,021.7,045.2,0.403,733.5,01.19,0.508
2013-10-03 00:22:00,1567E-4,5C000000,-0724,0945,11076,021.7,045.2,0.402,733.3,01.19,0.508
2013-10-03 00:23:00,1164E-4,5C000000,-0724,0945,11213,021.7,045.2,0.402,733.2,01.19,0.508
2013-10-03 00:24:00,1276E-4,5C000000,-0724,0944,11136,021.7,045.1,0.402,733.0,01.19,0.508
2013-10-03 00:25:00,7766E-5,5C000000,-0724,0944,10892,021.7,045.1,0.401,732.9,01.19,0.508
2013-10-03 00:26:00,1486E-4,5C000000,-0724,0945,10901,021.7,045.2,0.402,732.8,01.19,0.508
2013-10-03 00:27:00,1304E-4,5C000000,-0724,0945,11183,021.7,045.2,0.402,732.3,01.19,0.508
2013-10-03 00:28:00,8840E-5,5C000000,-0724,0945,11229,021.7,045.1,0.402,732.4,01.19,0.508
2013-10-03 00:29:00,1082E-4,5C000000,-0724,0946,11106,021.7,045.2,0.402,732.3,01.19,0.508
2013-10-03 00:30:00,7414E-5,5C000000,-0724,0945,11051,021.7,045.2,0.401,731.9,01.19,0.508
2013-10-03 00:31:00,4451E-5,5C000000,-0724,0944,11035,021.8,045.2,0.401,731.9,01.19,0.508
2013-10-03 00:32:00,1117E-4,5C000000,-0724,0945,11066,021.8,045.2,0.401,732.0,01.19,0.508
2013-10-03 00:33:00,1575E-4,5C000000,-0724,0947,11187,021.8,045.2,0.401,731.5,01.19,0.508
2013-10-03 00:34:00,8980E-5,5C000000,-0724,0944,11323,021.8,045.2,0.401,731.5,01.19,0.508
2013-10-03 00:35:00,2929E-5,5C000000,-0724,0944,10959,021.7,045.2,0.401,731.3,01.19,0.508
2013-10-03 00:36:00,7583E-5,5C000000,-0724,0946,11052,021.7,045.2,0.401,731.4,01.19,0.508
2013-10-03 00:37:00,1301E-4,5C000000,-0724,0947,11136,021.7,045.2,0.400,731.2,01.19,0.508
2013-10-03 00:38:00,1129E-4,5C000000,-0724,0947,10967,021.8,045.2,0.401,731.3,01.19,0.508
2013-10-03 00:39:00,8198E-5,5C000000,-0724,0946,11117,021.8,045.1,0.401,731.1,01.19,0.508
2013-10-03 00:40:00,1130E-4,5C000000,-0724,0947,10850,021.8,045.1,0.401,731.1,01.19,0.508
2013-10-03 00:41:00,1257E-4,5C000000,-0724,0946,11092,021.8,045.1,0.400,730.8,01.19,0.508
2013-10-03 00:42:00,1536E-4,5C000000,-0724,0946,11087,021.8,045.2,0.400,730.8,01.19,0.508
2013-10-03 00:43:00,9776E-5,5C000000,-0724,0947,11225,021.8,045.1,0.400,730.7,01.19,0.508
2013-10-03 00:44:00,8297E-5,5C000000,-0724,0947,11037,021.8,045.2,0.400,730.8,01.19,0.508
2013-10-03 00:45:00,1635E-4,5C000000,-0724,0946,11156,021.8,045.1,0.400,730.6,01.19,0.508
2013-10-03 00:46:00,1080E-4,5C000000,-0724,0948,11120,021.8,045.1,0.401,730.7,01.19,0.508
2013-10-03 00:47:00,7250E-5,5C000000,-0724,0947,10981,021.8,045.1,0.400,730.5,01.19,0.508
2013-10-03 00:48:00,1046E-4,5C000000,-0724,0947,11060,021.8,045.2,0.400,730.7,01.19,0.508
2013-10-03 00:49:00,1146E-4,5C000000,-0724,0946,11043,021.8,045.2,0.400,730.5,01.19,0.508
2013-10-03 00:50:00,1092E-4,5C000000,-0724,0946,11072,021.8,045.2,0.400,730.3,01.19,0.508
2013-10-03 00:51:00,1173E-4,5C000000,-0724,0946,11128,021.8,045.2,0.400,730.3,01.19,0.508
2013-10-03 00:52:00,4488E-5,5C000000,-0724,0947,11008,021.8,045.2,0.400,730.4,01.19,0.508
2013-10-03 00:53:00,1437E-4,5C000000,-0724,0947,11017,021.8,045.2,0.400,730.1,01.19,0.508
2013-10-03 00:54:00,1254E-4,5C000000,-0724,0946,11068,021.8,045.1,0.400,729.9,01.19,0.508
2013-10-03 00:55:00,9392E-5,5C000000,-0724,0946,11029,021.8,045.1,0.400,730.0,01.19,0.508
2013-10-03 00:56:00,9275E-5,5C000000,-0724,0946,10952,021.8,045.1,0.400,730.1,01.19,0.508
2013-10-03 00:57:00,6744E-5,5C000000,-0724,0946,11212,021.8,045.2,0.399,730.0,01.19,0.508
2013-10-03 00:58:00,2131E-4,5C000000,-0724,0946,10969,021.8,045.2,0.399,730.0,01.19,0.508
2013-10-03 00:59:00,8727E-5,5C000000,-0724,0946,11039,021.8,045.1,0.400,729.8,01.19,0.508
2013-10-03 01:00:00,9209E-5,5C000000,-0724,0946,11073,021.8,045.2,0.400,729.7,01.19,0.508
2013-10-03 01:01:00,1754E-4,5C000000,-0724,0946,10970,021.8,045.1,0.400,729.8,01.19,0.508
2013-10-03 01:02:00,1260E-4,5C000000,-0724,0946,11089,021.8,045.1,0.399,729.5,01.19,0.508
2013-10-03 01:03:00,1386E-4,5C000000,-0724,0946,11180,021.8,045.2,0.399,729.8,01.19,0.508
2013-10-03 01:04:00,1137E-4,5C000000,-0724,0946,11199,021.8,045.1,0.399,729.6,01.19,0.508
2013-10-03 01:05:00,1347E-4,5C000000,-0724,0945,11042,021.8,045.1,0.400,729.6,01.19,0.508
2013-10-03 01:06:00,8615E-5,5C000000,-0724,0946,11150,021.8,045.1,0.400,729.5,01.19,0.508
2013-10-03 01:07:00,9958E-5,5C000000,-0724,0946,11047,021.8,045.2,0.400,729.5,01.19,0.508
2013-10-03 01:08:00,9741E-5,5C000000,-0724,0945,10938,021.8,045.1,0.399,729.5,01.19,0.508
2013-10-03 01:09:00,1159E-4,5C000000,-0724,0946,11067,021.8,045.1,0.399,729.5,01.19,0.508
2013-10-03 01:10:00,4645E-5,5C000000,-0724,0945,11020,021.8,045.1,0.400,729.6,01.19,0.508
2013-10-03 01:11:00,5148E-5,5C000000,-0724,0945,11201,021.8,045.2,0.400,729.5,01.19,0.508
2013-10-03 01:12:00,1107E-4,5C000000,-0724,0945,11204,021.8,045.1,0.399,729.4,01.19,0.508
2013-10-03 01:13:00,3469E-5,5C000000,-0724,0946,11009,021.8,045.1,0.399,729.6,01.19,0.508
2013-10-03 01:14:00,1877E-4,5C000000,-0724,0946,11189,021.8,045.1,0.399,729.5,01.19,0.508
2013-10-03 01:15:00,1058E-4,5C000000,-0724,0946,11188,021.8,045.2,0.399,729.5,01.19,0.508
2013-10-03 01:16:00,1742E-4,5C000000,-0724,0946,10920,021.8,045.2,0.400,729.2,01.19,0.508
2013-10-03 01:17:00,1896E-4,5C000000,-0724,0946,11159,021.8,045.2,0.399,729.4,01.19,0.508
2013-10-03 01:18:00,1640E-4,5C000000,-0724,0946,11217,021.8,045.2,0.399,729.4,01.19,0.508
2013-10-03 01:19:00,7170E-5,5C000000,-0724,0944,11140,021.8,045.2,0.399,729.5,01.19,0.508
2013-10-03 01:20:00,1212E-4,5C000000,-0724,0943,11134,021.8,045.2,0.399,729.1,01.19,0.508
2013-10-03 01:21:00,6247E-5,5C000000,-0724,0945,11155,021.8,045.2,0.399,729.0,01.19,0.508
2013-10-03 01:22:00,4668E-5,5C000000,-0724,0944,11089,021.8,045.1,0.399,729.3,01.19,0.508
2013-10-03 01:23:00,5903E-5,5C000000,-0724,0947,10988,021.8,045.1,0.399,729.2,01.19,0.508
2013-10-03 01:24:00,5753E-5,5C000000,-0724,0945,11189,021.8,045.2,0.398,728.9,01.19,0.508
2013-10-03 01:25:00,8562E-5,5C000000,-0724,0945,11061,021.8,045.2,0.399,729.3,01.19,0.508
2013-10-03 01:26:00,9527E-5,5C000000,-0724,0947,11134,021.8,045.2,0.399,728.7,01.19,0.508
2013-10-03 01:27:00,1143E-4,5C000000,-0724,0946,11016,021.8,045.1,0.399,728.8,01.19,0.508
2013-10-03 01:28:00,1543E-4,5C000000,-0724,0945,10886,021.8,045.2,0.399,728.9,01.19,0.508
2013-10-03 01:29:00,5371E-5,5C000000,-0724,0945,11097,021.8,045.2,0.398,728.5,01.19,0.508
2013-10-03 01:30:00,1188E-4,5C000000,-0724,0946,11108,021.8,045.2,0.399,728.8,01.19,0.508
2013-10-03 01:31:00,1037E-4,5C000000,-0724,0946,10930,021.8,045.2,0.399,728.6,01.19,0.508
2013-10-03 01:32:00,1511E-4,5C000000,-0724,0945,11041,021.9,045.2,0.399,728.7,01.19,0.508
2013-10-03 01:33:00,1083E-4,5C000000,-0724,0945,11106,021.8,045.2,0.399,728.7,01.19,0.508
2013-10-03 01:34:00,1753E-4,5C000000,-0724,0944,11036,021.9,045.1,0.398,728.6,01.19,0.508
2013-10-03 01:35:00,3690E-5,5C000000,-0724,0944,11009,021.9,045.1,0.398,728.7,01.19,0.508
2013-10-03 01:36:00,1379E-4,5C000000,-0724,0945,11170,021.8,045.1,0.399,728.6,01.19,0.508
2013-10-03 01:37:00,1645E-4,5C000000,-0724,0945,11129,021.9,045.2,0.399,728.8,01.19,0.508
2013-10-03 01:38:00,5949E-5,5C000000,-0724,0944,10983,021.8,045.1,0.399,728.7,01.19,0.508
2013-10-03 01:39:00,1053E-4,5C000000,-0724,0945,11192,021.8,045.2,0.398,728.5,01.19,0.508
2013-10-03 01:40:00,1245E-4,5C000000,-0724,0945,11094,021.8,045.2,0.398,728.6,01.19,0.508
2013-10-03 01:41:00,1642E-4,5C000000,-0724,0945,11111,021.8,045.2,0.399,728.4,01.19,0.508
2013-10-03 01:42:00,8881E-5,5C000000,-0724,0944,11155,021.8,045.1,0.399,728.6,01.19,0.508
2013-10-03 01:43:00,1324E-4,5C000000,-0724,0945,10822,021.8,045.1,0.399,728.5,01.19,0.508
2013-10-03 01:44:00,3506E-5,5C000000,-0724,0945,10901,021.8,045.2,0.398,728.5,01.19,0.508
2013-10-03 01:45:00,5061E-5,5C000000,-0724,0945,11100,021.8,045.2,0.398,728.5,01.19,0.508
2013-10-03 01:46:00,1351E-4,5C000000,-0724,0944,10921,021.8,045.2,0.399,728.5,01.19,0.508
2013-10-03 01:47:00,1000E-4,5C000000,-0724,0944,10999,021.8,045.2,0.399,728.4,01.19,0.508
2013-10-03 01:48:00,1483E-4,5C000000,-0724,0944,11033,021.8,045.1,0.399,728.6,01.19,0.508
2013-10-03 01:49:00,1029E-4,5C000000,-0724,0944,10990,021.8,045.2,0.398,728.4,01.19,0.508
2013-10-03 01:50:00,1323E-4,5C000000,-0724,0944,11058,021.8,045.1,0.398,728.5,01.19,0.508
2013-10-03 01:51:00,1241E-4,5C000000,-0724,0943,11063,021.8,045.1,0.399,728.4,01.19,0.508
2013-10-03 01:52:00,2924E-5,5C000000,-0724,0944,11090,021.8,045.2,0.399,728.4,01.19,0.508
2013-10-03 01:53:00,3234E-5,5C000000,-0724,0944,11169,021.8,045.2,0.399,728.5,01.19,0.508
2013-10-03 01:54:00,1373E-4,5C000000,-0724,0945,11214,021.8,045.2,0.398,728.5,01.19,0.508
2013-10-03 01:55:00,1027E-4,5C000000,-0724,0944,10880,021.8,045.2,0.398,728.3,01.19,0.508
2013-10-03 01:56:00,1677E-4,5C000000,-0724,0945,11063,021.8,045.2,0.399,728.2,01.19,0.508
2013-10-03 01:57:00,1061E-4,5C000000,-0724,0943,11112,021.8,045.2,0.399,728.3,01.19,0.508
2013-10-03 01:58:00,8880E-5,5C000000,-0724,0944,11043,021.8,045.1,0.399,728.3,01.19,0.508
2013-10-03 01:59:00,1752E-4,5C000000,-0724,0944,11120,021.8,045.1,0.398,728.4,01.19,0.508
2013-10-03 02:00:00,1412E-4,5C000000,-0724,0943,11189,021.8,045.1,0.398,728.3,01.19,0.508
2013-10-03 02:01:00,1554E-4,5C000000,-0724,0943,11109,021.8,045.1,0.399,728.3,01.19,0.508
2013-10-03 02:02:00,-2445E-5,5C000000,-0724,0941,11011,021.8,045.1,0.399,728.2,01.19,0.508
2013-10-03 02:03:00,6578E-5,5C000000,-0724,0944,10931,021.8,045.2,0.398,728.1,01.19,0.508
2013-10-03 02:04:00,2104E-4,5C000000,-0724,0943,11337,021.8,045.2,0.398,728.1,01.19,0.508
2013-10-03 02:05:00,1348E-4,5C000000,-0724,0944,11044,021.8,045.2,0.399,728.1,01.19,0.508
2013-10-03 02:06:00,1123E-4,5C000000,-0724,0943,11042,021.8,045.1,0.399,728.1,01.19,0.508
2013-10-03 02:07:00,9529E-5,5C000000,-0724,0945,11087,021.8,045.1,0.398,728.2,01.19,0.508
2013-10-03 02:08:00,1344E-4,5C000000,-0724,0945,11254,021.8,045.2,0.398,728.1,01.19,0.508
2013-10-03 02:09:00,1340E-4,5C000000,-0724,0945,11230,021.8,045.2,0.398,728.0,01.19,0.508
2013-10-03 02:10:00,1011E-4,5C000000,-0724,0943,11177,021.8,045.2,0.399,728.2,01.19,0.508
2013-10-03 02:11:00,1005E-4,5C000000,-0724,0943,11183,021.8,045.2,0.398,728.1,01.19,0.508
2013-10-03 02:12:00,1586E-4,5C000000,-0724,0945,11231,021.8,045.2,0.398,727.9,01.19,0.508
2013-10-03 02:13:00,1312E-4,5C000000,-0724,0945,11039,021.8,045.2,0.398,727.9,01.19,0.508
2013-10-03 02:14:00,9991E-5,5C000000,-0724,0942,11216,021.8,045.2,0.399,727.9,01.19,0.508
2013-10-03 02:15:00,5122E-5,5C000000,-0724,0944,11071,021.8,045.2,0.398,728.1,01.19,0.508
2013-10-03 02:16:00,3622E-5,5C000000,-0724,0943,10972,021.8,045.2,0.398,727.9,01.19,0.508
2013-10-03 02:17:00,1375E-4,5C000000,-0724,0945,11319,021.8,045.2,0.398,727.9,01.19,0.508
2013-10-03 02:18:00,1948E-4,5C000000,-0724,0944,11196,021.8,045.2,0.398,727.9,01.19,0.508
2013-10-03 02:19:00,1526E-4,5C000000,-0724,0944,11089,021.8,045.2,0.399,727.9,01.19,0.508
2013-10-03 02:20:00,1295E-4,5C000000,-0724,0945,11056,021.8,045.2,0.398,727.8,01.19,0.508
2013-10-03 02:21:00,1173E-4,5C000000,-0724,0945,11132,021.8,045.2,0.398,727.9,01.19,0.508
2013-10-03 02:22:00,1581E-4,5C000000,-0724,0943,11066,021.8,045.2,0.398,727.7,01.19,0.508
2013-10-03 02:23:00,2128E-4,5C000000,-0724,0944,11012,021.8,045.1,0.398,727.7,01.19,0.508
2013-10-03 02:24:00,7799E-5,5C000000,-0724,0942,10961,021.9,045.2,0.398,727.8,01.19,0.508
2013-10-03 02:25:00,8580E-5,5C000000,-0724,0944,10996,021.8,045.2,0.398,727.8,01.19,0.508
2013-10-03 02:26:00,2298E-4,5C000000,-0724,0942,11041,021.9,045.2,0.398,727.8,01.19,0.508
2013-10-03 02:27:00,1800E-4,5C000000,-0724,0942,11022,021.9,045.2,0.398,727.8,01.19,0.508
2013-10-03 02:28:00,4973E-5,5C000000,-0724,0944,11106,021.9,045.2,0.398,727.6,01.19,0.508
2013-10-03 02:29:00,1584E-4,5C000000,-0724,0944,11192,021.9,045.2,0.398,727.7,01.19,0.508
2013-10-03 02:30:00,1819E-4,5C000000,-0724,0943,11031,021.9,045.2,0.398,727.7,01.19,0.508
2013-10-03 02:31:00,9484E-5,5C000000,-0724,0943,11188,021.8,045.2,0.398,727.3,01.19,0.508
2013-10-03 02:32:00,4502E-5,5C000000,-0724,0944,11011,021.8,045.2,0.398,727.6,01.19,0.508
2013-10-03 02:33:00,1444E-4,5C000000,-0724,0943,11011,021.9,045.2,0.398,727.5,01.19,0.508
2013-10-03 02:34:00,1172E-4,5C000000,-0724,0946,11029,021.9,045.2,0.398,727.5,01.19,0.508
2013-10-03 02:35:00,-1530E-5,5C000000,-0724,0946,11134,021.9,045.2,0.398,727.5,01.19,0.508
2013-10-03 02:36:00,7700E-5,5C000000,-0724,0945,11133,021.9,045.2,0.398,727.3,01.19,0.508
2013-10-03 02:37:00,8211E-5,5C000000,-0724,0945,11103,021.9,045.2,0.398,727.5,01.19,0.508
2013-10-03 02:38:00,7664E-5,5C000000,-0724,0946,11283,021.9,045.2,0.398,727.4,01.19,0.508
2013-10-03 02:39:00,1015E-4,5C000000,-0724,0944,11160,021.9,045.1,0.397,727.5,01.19,0.508
2013-10-03 02:40:00,1363E-4,5C000000,-0724,0945,11106,021.9,045.2,0.398,727.5,01.19,0.508
2013-10-03 02:41:00,1168E-4,5C000000,-0724,0946,11057,021.9,045.2,0.398,727.5,01.19,0.508
2013-10-03 02:42:00,1855E-4,5C000000,-0724,0945,10981,021.9,045.2,0.398,727.1,01.19,0.508
2013-10-03 02:43:00,1716E-4,5C000000,-0724,0944,11195,021.9,045.1,0.398,727.3,01.19,0.508
2013-10-03 02:44:00,8214E-5,5C000000,-0724,0943,11112,021.9,045.1,0.397,727.4,01.19,0.508
2013-10-03 02:45:00,7275E-5,5C000000,-0724,0943,11299,021.9,045.2,0.398,727.6,01.19,0.508
2013-10-03 02:46:00,1020E-4,5C000000,-0724,0943,10982,021.9,045.2,0.398,727.1,01.19,0.508
2013-10-03 02:47:00,1330E-4,5C000000,-0724,0943,11155,021.9,045.1,0.398,727.3,01.19,0.508
2013-10-03 02:48:00,1393E-4,5C000000,-0724,0944,10865,021.9,045.2,0.397,727.4,01.19,0.508
2013-10-03 02:49:00,5285E-5,5C000000,-0724,0944,10842,021.9,045.2,0.398,727.4,01.19,0.508
2013-10-03 02:50:00,9096E-5,5C000000,-0724,0943,10985,021.9,045.1,0.398,727.4,01.19,0.508
2013-10-03 02:51:00,2290E-4,5C000000,-0724,0944,11008,021.9,045.2,0.398,727.5,01.19,0.508
2013-10-03 02:52:00,1554E-4,5C000000,-0724,0943,11149,021.9,045.2,0.398,727.3,01.19,0.508
2013-10-03 02:53:00,1425E-4,5C000000,-0724,0945,11196,021.9,045.1,0.397,727.4,01.19,0.508
2013-10-03 02:54:00,1082E-4,5C000000,-0724,0946,10905,021.9,045.1,0.398,727.5,01.19,0.508
2013-10-03 02:55:00,1430E-4,5C000000,-0724,0944,10991,021.9,045.1,0.398,727.6,01.19,0.508
2013-10-03 02:56:00,6509E-5,5C000000,-0724,0944,11161,021.9,045.1,0.398,727.3,01.19,0.508
2013-10-03 02:57:00,7707E-5,5C000000,-0724,0944,11060,021.9,045.1,0.398,727.4,01.19,0.508
2013-10-03 02:58:00,9493E-5,5C000000,-0724,0945,11223,021.9,045.2,0.397,727.5,01.19,0.508
2013-10-03 02:59:00,2128E-4,5C000000,-0724,0942,11260,021.9,045.1,0.398,727.6,01.19,0.508
2013-10-03 03:00:00,3131E-5,5C000000,-0724,0944,11239,021.9,045.2,0.398,727.5,01.19,0.508
2013-10-03 03:01:00,1576E-4,5C000000,-0724,0943,11003,021.9,045.2,0.398,727.6,01.19,0.508
2013-10-03 03:02:00,1516E-4,5C000000,-0724,0944,10918,021.9,045.1,0.398,727.6,01.19,0.508
2013-10-03 03:03:00,9239E-5,5C000000,-0724,0945,11049,021.9,045.2,0.397,727.7,01.19,0.508
2013-10-03 03:04:00,1927E-4,5C000000,-0724,0944,11063,021.9,045.2,0.398,727.6,01.19,0.508
2013-10-03 03:05:00,8426E-5,5C000000,-0724,0944,11302,021.9,045.2,0.398,727.8,01.19,0.508
2013-10-03 03:06:00,8049E-5,5C000000,-0724,0944,11077,021.9,045.2,0.397,727.5,01.19,0.508
2013-10-03 03:07:00,1441E-4,5C000000,-0724,0945,10978,021.9,045.2,0.397,727.7,01.19,0.508
2013-10-03 03:08:00,5995E-5,5C000000,-0724,0943,11082,021.9,045.1,0.398,727.7,01.19,0.508
2013-10-03 03:09:00,1305E-4,5C000000,-0724,0944,11115,021.9,045.2,0.398,727.7,01.19,0.508
2013-10-03 03:10:00,-2731E-7,5C000000,-0724,0946,11224,021.9,045.1,0.398,727.9,01.19,0.508
2013-10-03 03:11:00,7707E-5,5C000000,-0724,0945,11204,021.9,045.1,0.398,727.9,01.19,0.508
2013-10-03 03:12:00,1210E-4,5C000000,-0724,0944,11005,021.9,045.2,0.398,728.0,01.19,0.508
2013-10-03 03:13:00,1403E-4,5C000000,-0724,0944,11103,021.9,045.1,0.398,727.8,01.19,0.508
2013-10-03 03:14:00,-5886E-6,5C000000,-0724,0947,11090,021.9,045.2,0.398,727.6,01.19,0.508
2013-10-03 03:15:00,1023E-4,5C000000,-0724,0945,11138,021.9,045.2,0.397,727.8,01.19,0.508
2013-10-03 03:16:00,5877E-6,5C000000,-0724,0947,11113,021.9,045.1,0.398,727.7,01.19,0.508
2013-10-03 03:17:00,1470E-4,5C000000,-0724,0946,11171,021.9,045.1,0.398,727.9,01.19,0.508
2013-10-03 03:18:00,6096E-5,5C000000,-0724,0946,11033,021.9,045.2,0.397,727.9,01.19,0.508
2013-10-03 03:19:00,1148E-4,5C000000,-0724,0947,10956,021.9,045.2,0.398,728.0,01.19,0.508
2013-10-03 03:20:00,9346E-5,5C000000,-0724,0945,10967,022.0,045.2,0.398,727.8,01.19,0.508
2013-10-03 03:21:00,7765E-5,5C000000,-0724,0946,11163,022.0,045.2,0.398,727.8,01.19,0.508
2013-10-03 03:22:00,9403E-5,5C000000,-0724,0946,11025,022.0,045.2,0.397,728.0,01.19,0.508
2013-10-03 03:23:00,1316E-4,5C000000,-0724,0945,11191,021.9,045.2,0.398,727.9,01.19,0.508
2013-10-03 03:24:00,4160E-5,5C000000,-0724,0946,11104,022.0,045.2,0.398,728.0,01.19,0.508
2013-10-03 03:25:00,6812E-5,5C000000,-0724,0946,11095,021.9,045.2,0.398,727.9,01.19,0.508
2013-10-03 03:26:00,5095E-5,5C000000,-0724,0947,11055,022.0,045.2,0.397,727.8,01.19,0.508
2013-10-03 03:27:00,1268E-4,5C000000,-0724,0946,10990,022.0,045.2,0.398,727.7,01.19,0.508
2013-10-03 03:28:00,1117E-4,5C000000,-0724,0946,11066,022.0,045.2,0.398,727.9,01.19,0.508
2013-10-03 03:29:00,1176E-4,5C000000,-0724,0947,11140,022.0,045.1,0.398,728.0,01.19,0.508
2013-10-03 03:30:00,1197E-4,5C000000,-0724,0946,11050,022.0,045.2,0.397,728.0,01.19,0.508
2013-10-03 03:31:00,1487E-4,5C000000,-0724,0945,11065,021.9,045.2,0.398,728.0,01.19,0.508
2013-10-03 03:32:00,1180E-4,5C000000,-0724,0946,11164,022.0,045.1,0.398,727.8,01.19,0.508
2013-10-03 03:33:00,2418E-5,5C000000,-0724,0947,10941,022.0,045.1,0.398,728.0,01.19,0.508
2013-10-03 03:34:00,1224E-4,5C000000,-0724,0945,10803,022.0,045.2,0.398,728.1,01.19,0.508
2013-10-03 03:35:00,7373E-5,5C000000,-0724,0946,10948,022.0,045.1,0.398,728.1,01.19,0.508
2013-10-03 03:36:00,1959E-4,5C000000,-0724,0946,11212,022.0,045.1,0.398,728.1,01.19,0.508
2013-10-03 03:37:00,9031E-5,5C000000,-0724,0946,11131,022.0,045.2,0.397,728.2,01.19,0.508
2013-10-03 03:38:00,7963E-5,5C000000,-0724,0946,11086,022.0,045.2,0.398,728.1,01.19,0.508
2013-10-03 03:39:00,9813E-5,5C000000,-0724,0945,11144,022.0,045.2,0.398,728.1,01.19,0.508
2013-10-03 03:40:00,1209E-4,5C000000,-0724,0946,11037,022.0,045.2,0.398,727.9,01.19,0.508
2013-10-03 03:41:00,1775E-4,5C000000,-0724,0946,11231,022.0,045.2,0.397,728.2,01.19,0.508
2013-10-03 03:42:00,5496E-5,5C000000,-0724,0946,11089,022.0,045.2,0.398,728.2,01.19,0.508
2013-10-03 03:43:00,7393E-5,5C000000,-0724,0945,11072,022.0,045.2,0.398,728.6,01.19,0.508
2013-10-03 03:44:00,2148E-4,5C000000,-0724,0945,11002,022.0,045.2,0.398,729.1,01.19,0.508
2013-10-03 03:45:00,1512E-4,5C000000,-0724,0946,10902,022.0,045.2,0.399,729.9,01.19,0.508
2013-10-03 03:46:00,8683E-5,5C000000,-0724,0946,10935,022.0,045.2,0.400,730.8,01.19,0.508
2013-10-03 03:47:00,1161E-4,5C000000,-0724,0945,11031,022.0,045.2,0.400,731.8,01.19,0.508
2013-10-03 03:48:00,1435E-4,5C000000,-0724,0945,11040,022.0,045.2,0.401,732.7,01.19,0.508
2013-10-03 03:49:00,1145E-4,5C000000,-0724,0946,11113,022.0,045.2,0.402,733.4,01.19,0.508
2013-10-03 03:50:00,9343E-5,5C000000,-0724,0945,11039,022.0,045.1,0.402,734.0,01.19,0.508
2013-10-03 03:51:00,8664E-5,5C000000,-0724,0946,11050,022.0,045.1,0.402,734.5,01.18,0.508
2013-10-03 03:52:00,1551E-4,5C000000,-0724,0946,11090,022.0,045.1,0.402,734.9,01.18,0.508
2013-10-03 03:53:00,1312E-4,5C000000,-0724,0945,11166,022.0,045.2,0.403,735.3,01.18,0.508
2013-10-03 03:54:00,1394E-5,5C000000,-0724,0947,11137,022.0,045.2,0.403,735.6,01.18,0.508
2013-10-03 03:55:00,1561E-4,5C000000,-0724,0945,11173,022.0,045.2,0.403,735.9,01.18,0.508
2013-10-03 03:56:00,1422E-4,5C000000,-0724,0945,10971,022.0,045.2,0.403,736.0,01.18,0.508
2013-10-03 03:57:00,1440E-4,5C000000,-0724,0947,11242,022.0,045.1,0.404,736.2,01.18,0.508
2013-10-03 03:58:00,5403E-5,5C000000,-0724,0946,10954,022.0,045.2,0.404,736.2,01.18,0.508
2013-10-03 03:59:00,1121E-4,5C000000,-0724,0946,11190,022.0,045.2,0.403,736.4,01.18,0.508
2013-10-03 04:00:00,1579E-4,5C000000,-0724,0945,10882,022.0,045.2,0.404,736.3,01.18,0.508
2013-10-03 04:01:00,1858E-4,5C000000,-0724,0946,11109,022.0,045.2,0.404,736.5,01.18,0.508
2013-10-03 04:02:00,1211E-4,5C000000,-0724,0944,11037,022.0,045.2,0.404,736.4,01.18,0.508
2013-10-03 04:03:00,1607E-4,5C000000,-0724,0944,11134,022.0,045.2,0.404,736.6,01.18,0.508
2013-10-03 04:04:00,1086E-4,5C000000,-0724,0944,11003,022.0,045.2,0.404,736.5,01.18,0.508
2013-10-03 04:05:00,1295E-4,5C000000,-0724,0945,11242,022.0,045.2,0.403,736.7,01.18,0.508
2013-10-03 04:06:00,5915E-5,5C000000,-0724,0945,11039,022.0,045.2,0.404,736.9,01.18,0.508
2013-10-03 04:07:00,1079E-4,5C000000,-0724,0944,11067,022.0,045.2,0.404,736.6,01.18,0.508
2013-10-03 04:08:00,1069E-4,5C000000,-0724,0945,11186,022.0,045.2,0.404,736.5,01.18,0.508
2013-10-03 04:09:00,2097E-4,5C000000,-0724,0945,11053,022.0,045.2,0.404,736.7,01.18,0.508
2013-10-03 04:10:00,1258E-4,5C000000,-0724,0943,11185,022.0,045.2,0.404,736.7,01.18,0.508
2013-10-03 04:11:00,1883E-4,5C000000,-0724,0944,11068,022.0,045.1,0.404,736.8,01.18,0.508
2013-10-03 04:12:00,2021E-4,5C000000,-0724,0945,11139,022.1,045.1,0.404,736.9,01.18,0.508
2013-10-03 04:13:00,7403E-5,5C000000,-0724,0943,11154,022.1,045.2,0.404,736.7,01.18,0.508
2013-10-03 04:14:00,1013E-4,5C000000,-0724,0944,11029,022.1,045.2,0.404,736.7,01.18,0.508
2013-10-03 04:15:00,9200E-5,5C000000,-0724,0943,11186,022.1,045.2,0.404,736.7,01.18,0.508
2013-10-03 04:16:00,1048E-4,5C000000,-0724,0943,11337,022.1,045.2,0.404,736.7,01.18,0.508
2013-10-03 04:17:00,-1776E-5,5C000000,-0724,0943,11032,022.0,045.2,0.404,736.9,01.18,0.508
2013-10-03 04:18:00,2455E-4,5C000000,-0724,0945,11184,022.1,045.2,0.404,737.0,01.18,0.508
2013-10-03 04:19:00,1771E-4,5C000000,-0724,0944,11259,022.1,045.2,0.404,736.9,01.18,0.508
2013-10-03 04:20:00,1259E-4,5C000000,-0724,0944,11303,022.1,045.2,0.404,736.9,01.18,0.508